Regional Weather Roundup
Issued by NWS New Orleans/Baton Rouge, LA

Home | Current Version | Previous Version | Text Only | Print | Product List | Glossary On
Versions: 1 2 3 4 5 6 7 8 9 10 11 12 13 14 15 16 17 18 19 20 21 22 23 24 25 26 27 28 29 30 31 32 33 34 35 36 37 38 39 40 41 42 43 44 45 46 47 48 49 50
000
ASUS44 KLIX 270412
RWRLIX
NEW ORLEANS REGIONAL WEATHER ROUNDUP
NATIONAL WEATHER SERVICE NEW ORLEANS LA
1100 PM CDT TUE MAY 26 2015

NOTE: "FAIR" INDICATES FEW OR NO CLOUDS BELOW 12,000 FEET WITH NO
      SIGNIFICANT WEATHER AND/OR OBSTRUCTIONS TO VISIBILITY.
      SKY/WX - SKY CONDITION AND SIGNIFICANT WEATHER.
      TMP - AIR TEMPERATURE.     DP    - DEWPOINT TEMPERATURE.
      RH  - RELATIVE HUMIDITY.   PRES  - PRESSURE.
      HI  - HEAT INDEX.          WCI   - WIND CHILL INDEX.

*  THESE STATIONS ARE NOT NWS OR FAA STATIONS AND ARE NOT UNDER
   NWS QUALITY CONTROL.

LAZ038-040-048-061>063-065>067-069-270500-
SOUTHEAST LOUISIANA

CITY           SKY/WX    TMP DP  RH WIND       PRES   REMARKS
N.O. AUDUBON     N/A     79  75  88 MISG        N/A
N.O. INTL ARPT PTCLDY    78  71  79 SE3       30.10F
N.O. LAKEFRONT CLEAR     80  73  79 SE5       30.11S
SLIDELL        CLEAR     74  73  97 CALM      30.10F
BATON ROUGE    PTCLDY    73  70  90 CALM      30.09S
BOOTHVILLE     PTCLDY    78  75  90 S5        30.10S
BELLE CHASSE   MOCLDY    73  71  93 CALM      30.09F
BOGALUSA*        N/A     73  70  89 CALM      30.13S
GALLIANO*      PTCLDY    74  72  93 CALM      30.10F
NEW ROADS*       N/A     76  69  79 E6        30.09F
GONZALES*        N/A     76  75  99 CALM      30.08F
HAMMOND*       CLEAR     75  70  83 CALM      30.12F
HOUMA*         CLEAR     73  73  98 CALM      30.10S
PORT FOURCHON* CLEAR     81  75  83 S8        30.10S

$$

MSZ070-080>082-270500-
SOUTHERN MISSISSIPPI

CITY           SKY/WX    TMP DP  RH WIND       PRES   REMARKS
MCCOMB         CLEAR     71  69  93 CALM      30.12S
GULFPORT       MOCLDY    77  73  87 CALM      30.11S
BILOXI         CLOUDY    79  76  89 SE5       30.11S
PASCAGOULA     CLOUDY    73  72  96 CALM      30.12S FOG

$$

COASTAL OBSERVATIONS
LAKE AND NEARSHORE STATIONS

STATION/POSITION TIME  TEMP    WIND        PRES    WAVE
                       AIR SEA DIR/SP/G            HT/PER
                 (UTC) (F)     (DEG/KT/KT) (MB)    (FT/S)
PASCAGOULA       0300   79     150/  3/  6 1019.5
WAVELAND YACHT   0300   79 79  160/  8/ 10 1019.7
GRAND ISLE       0300   80 82  160/  8/ 14 1019.1
SOUTHWEST PASS   0300   79 75  170/ 12/ 15 1019.5
NEW CANAL        0300   78 80   CALM  /  2 1018.7
SHELL BEACH      0300   78 81  160/  2/  3 1019.1

OFFSHORE STATIONS

STATION/POSITION TIME  TEMP    WIND        PRES    WAVE
                       AIR SEA DIR/SP/G            HT/PER
                 (UTC) (F)     (DEG/KT/KT) (MB)    (FT/S)
64 S DAUPHIN ISL 0350   79 80  150/  6/  6 1020.1    4/ 7

$$



USA.gov is the U.S. government's official web portal to all federal, state and local government web resources and services.